Regional Weather Roundup
Issued by NWS

Home | Current Version | Previous Version | Text Only | Print | Product List | Glossary On
Versions: 1 2 3 4 5 6 7 8 9 10 11 12 13 14 15 16 17 18 19 20 21 22 23 24 25 26 27 28 29 30 31 32 33 34 35 36 37 38 39 40 41
000
ASPQ40 PGUM 271514
RWRPQ
WEATHER ROUNDUP FOR THE MARIANAS AND MICRONESIA
NATIONAL WEATHER SERVICE TIYAN GU
100 AM CHST THU MAY 28 2015

GUZ001>004-271600-
MARIANA ISLANDS-

CITY           SKY/WX    TMP DP  RH WIND       PRES   REMARKS
GUAM AIRPORT   MOCLDY    77  75  94 CALM      29.84F
ANDERSEN AFB   MOCLDY    79  75  89 E12       29.84F
ROTA AIRPORT   NOT AVBL
TINIAN AP      NOT AVBL
SAIPAN AP      PTCLDY    81  75  83 E9        29.84F

$$

PMZ161-271600-
REPUBLIC OF PALAU-

CITY           SKY/WX    TMP DP  RH WIND       PRES   REMARKS
KOROR AP       PTCLDY    75  75 100 NW5       29.87S
KOROR WSO      MOCLDY    81  77  89 CALM      29.85F

$$

PMZ171>174-271600-
FEDERATED STATES OF MICRONESIA-

CITY           SKY/WX    TMP DP  RH WIND       PRES   REMARKS
YAP AIRPORT    MOCLDY    79  77  94 VRB3      29.82F
CHUUK AP       MOCLDY    79  77  94 CALM      29.80F
POHNPEI AP     NOT AVBL
POHNPEI WSO    LGT RAIN  75  75 100 SE3       29.88F
KOSRAE AP      NOT AVBL

$$

PMZ181-271600-
REPUBLIC OF THE MARSHALL ISLANDS-

CITY           SKY/WX    TMP DP  RH WIND       PRES   REMARKS
KWAJALEIN AP   PTCLDY    81  73  78 E6        29.85F
MAJURO AP      NOT AVBL
MAJURO WSO     MOCLDY    79  75  89 SE10      29.83F

$$




USA.gov is the U.S. government's official web portal to all federal, state and local government web resources and services.